Regional Weather Roundup
Issued by NWS Jackson, KY

Home | Current Version | Previous Version | Text Only | Print | Product List | Glossary On
Versions: 1 2 3 4 5 6 7 8 9 10 11 12 13 14 15 16 17 18 19 20 21 22 23 24 25 26 27 28 29 30 31 32 33 34 35 36 37 38 39 40 41 42 43 44 45 46 47 48 49 50
000
ASUS43 KJKL 280210
RWRJKL

EAST KENTUCKY HOURLY WEATHER ROUNDUP
NATIONAL WEATHER SERVICE JACKSON KY
1000 PM EDT MON JUL 27 2015

NOTE: "FAIR" INDICATES FEW OR NO CLOUDS BELOW 12,000 FEET WITH
NO SIGNIFICANT WEATHER AND/OR OBSTRUCTIONS TO VISIBILITY.

* THESE REPORTS ARE NOT UNDER NWS QUALITY CONTROL AND MAY NOT
  REPORT WEATHER SUCH AS PRECIPITATION AND FOG.

KYZ079-080-083-085-087-088-110-112-115-119-120-280300
...EASTERN KENTUCKY...

CITY           SKY/WX    TMP DP  RH WIND       PRES   REMARKS
JACKSON        CLEAR     77  73  87 CALM      30.02R
LONDON         PTCLDY    76  70  82 S6        30.01S
SOMERSET*      CLEAR     75  73  94 CALM      30.00R
MONTICELLO*    PTCLDY    77  77 100 CALM      30.01S
WILLIAMSBURG*  CLEAR     75  73  94 SE8       30.01S
MIDDLESBORO*   RAIN      75  72  89 NW3       30.04R
HAZARD APT*    CLEAR     77  75  94 SW3       30.02R
BLACK MTN*       N/A     70  68  94 S2          N/A
PIKEVILLE APT* MOCLDY    77  73  88 CALM      30.03R
BIG SANDY*     CLOUDY    76  70  81 CALM      30.01R
MOREHEAD APT*  CLOUDY    75  70  83 NW9G16    30.03R
$$

KYZ035-036-041-042-044-050-067-078-099-280300
...CENTRAL KENTUCKY...

CITY           SKY/WX    TMP DP  RH WIND       PRES   REMARKS
MT STERLING*   CLOUDY    77  73  88 CALM      30.00R
FLEMING/MASON* CLEAR     75  73  94 SW6       30.01R
DANVILLE*      CLEAR     77  73  88 CALM      30.00R
RICHMOND*      CLEAR     81  72  74 CALM      29.98S
LEXINGTON      CLEAR     79  73  82 S3        29.99R
FRANKFORT      CLEAR     78  73  84 CALM      29.97R
$$

KYZ091>093-OHZ055-061-077-WVZ005-015-034-035-042-280300
...SOUTHERN OHIO/WEST VIRGINIA...

CITY           SKY/WX    TMP DP  RH WIND       PRES   REMARKS
COVINGTON      PTCLDY    81  71  71 E7        29.98R
COLUMBUS       MOCLDY    77  64  64 CALM      29.99R
DAYTON         MOCLDY    77  72  84 CALM      30.02R
WILMINGTON     CLOUDY    77  72  84 CALM      30.00R
HUNTINGTON     CLEAR     75  73  93 E6        29.98R
CHARLESTON     CLOUDY    71  69  93 CALM      30.00R
PINEVILLE*     CLEAR     72  72 100 MISG      30.10R
BECKLEY        PTCLDY    73  69  87 CALM      30.09R
BLUEFIELD      MOCLDY    73  66  78 SE3       30.11R
$$

VAZ002-007-008-TNZ017-027-036-066-071-280300
...SOUTHWEST VIRGINIA/EAST TENNESSEE...

CITY           SKY/WX    TMP DP  RH WIND       PRES   REMARKS
WISE*          PTCLDY    75  73  94 CALM      30.12R
ABINGDON*      PTCLDY    74  69  85 CALM      30.07R
BRISTOL        PTCLDY    74  71  91 CALM      30.03R
KNOXVILLE      MOCLDY    82  74  76 NE6       29.99R
OAK RIDGE      PTCLDY    80  72  76 E5        30.01R
CROSSVILLE     MOCLDY    77  71  82 S3        30.06R
NASHVILLE      MOCLDY    86  74  67 NW3       29.97R HX  94
$$

...KEY TO REMARKS...
VSB - VISIBILITY IN MILES
WCI - WIND CHILL INDEX
HX  - HEAT INDEX

$$


USA.gov is the U.S. government's official web portal to all federal, state and local government web resources and services.